TimeEST,TemperatureF,Dew PointF,Humidity,Sea Level PressureIn,VisibilityMPH,Wind Direction,Wind SpeedMPH,Gust SpeedMPH,PrecipitationIn,Events,Conditions,WindDirDegrees,DateUTC
12:54 AM,30.9,27.0,85,30.47,10.0,Calm,Calm,-,N/A,,Clear,0,2012-11-18 05:54:00
1:54 AM,30.9,26.1,82,30.47,10.0,Calm,Calm,-,N/A,,Clear,0,2012-11-18 06:54:00
2:54 AM,28.9,26.1,89,30.48,10.0,Calm,Calm,-,N/A,,Clear,0,2012-11-18 07:54:00
3:54 AM,28.9,26.1,89,30.48,10.0,Calm,Calm,-,N/A,,Clear,0,2012-11-18 08:54:00
4:54 AM,28.9,25.0,85,30.49,10.0,Calm,Calm,-,N/A,,Clear,0,2012-11-18 09:54:00
5:54 AM,27.0,24.1,89,30.51,10.0,Calm,Calm,-,N/A,,Clear,0,2012-11-18 10:54:00
6:54 AM,27.0,23.0,85,30.51,10.0,Calm,Calm,-,N/A,,Clear,0,2012-11-18 11:54:00
7:54 AM,27.0,25.0,92,30.51,10.0,Calm,Calm,-,N/A,,Clear,0,2012-11-18 12:54:00
8:54 AM,32.0,28.9,88,30.51,9.0,Calm,Calm,-,N/A,,Clear,0,2012-11-18 13:54:00
9:54 AM,43.0,30.9,62,30.49,10.0,Calm,Calm,-,N/A,,Clear,0,2012-11-18 14:54:00
10:54 AM,51.1,30.0,44,30.48,10.0,Calm,Calm,-,N/A,,Clear,0,2012-11-18 15:54:00
11:54 AM,55.9,32.0,40,30.45,10.0,Calm,Calm,-,N/A,,Clear,0,2012-11-18 16:54:00
12:54 PM,60.1,32.0,35,30.43,10.0,Calm,Calm,-,N/A,,Clear,0,2012-11-18 17:54:00
1:54 PM,62.1,32.0,32,30.40,10.0,Calm,Calm,-,N/A,,Clear,0,2012-11-18 18:54:00
2:54 PM,63.0,32.0,31,30.39,10.0,NNE,3.5,-,N/A,,Clear,20,2012-11-18 19:54:00
3:54 PM,62.1,30.9,31,30.39,10.0,Calm,Calm,-,N/A,,Clear,0,2012-11-18 20:54:00
4:54 PM,59.0,30.2,34,30.40,10.0,ESE,4.6,-,N/A,,Partly Cloudy,110,2012-11-18 21:54:00
5:54 PM,55.9,30.0,37,30.40,10.0,Calm,Calm,-,N/A,,Clear,0,2012-11-18 22:54:00
6:54 PM,51.1,30.9,46,30.42,10.0,Calm,Calm,-,N/A,,Clear,0,2012-11-18 23:54:00
7:54 PM,46.0,32.0,58,30.42,10.0,Calm,Calm,-,N/A,,Clear,0,2012-11-19 00:54:00
8:54 PM,44.6,32.0,61,30.41,10.0,Calm,Calm,-,N/A,,Clear,0,2012-11-19 01:54:00
9:54 PM,42.1,32.0,67,30.42,10.0,Calm,Calm,-,N/A,,Clear,0,2012-11-19 02:54:00
10:54 PM,39.9,32.0,73,30.40,10.0,Calm,Calm,-,N/A,,Clear,0,2012-11-19 03:54:00
11:54 PM,37.0,30.9,79,30.40,10.0,Calm,Calm,-,N/A,,Clear,0,2012-11-19 04:54:00